Home > Weather > Saint-Pierre > Past weeks

Flag for Réunion (French) Past Weather in Saint-Pierre, Réunion (French) — Yesterday and Last 2 Weeks

Now
75 °F

Clear.


Feels Like: 77 °F
Forecast: 66 / 76 °F
Wind: 14 mph from Southeast

Location: Saint Airport-Pierre

Current Time: Aug 25, 2016 at 5:26:15 PM

Latest Report: Aug 25, 2016 at 5:00 PM


Visibility: N/A

Pressure: 30.12 "Hg

Humidity: 69%

Dew Point: 64 °F

Location of Saint-PierreLocation

Past Weather in Saint-Pierre — Graph

°F

Saint-Pierre Temperature Yesterday

Maximum temperature yesterday: 77 °F (at 11:30 AM)
Minimum temperature yesterday: 63 °F (at 6:00 AM)
Average temperature yesterday: 71 °F

High & Low Weather Summary for the Past Weeks

 TemperatureHumidityPressure
High81 °F (Aug 12, 11:00 AM)88% (Aug 13, 4:30 AM)30.27 "Hg (Aug 13, 4:30 AM)
Low63 °F (Aug 18, 3:30 AM)38% (Aug 23, 8:30 AM)30.07 "Hg (Aug 20, 2:00 PM)
Average71 °F65%30.17 "Hg
* Reported Aug 10 4:00 PM — Aug 25 4:00 PM, Saint-Pierre, Weather by CustomWeather, © 2016

Note: Actual official high and low records may vary slightly from our data, if they occured in-between our weather recording intervals... More about our weather records

Advertising

Saint-Pierre Weather History for the Previous 24 Hours

Scroll right to see more
 ConditionsComfort  
Time TempWeatherWind HumidityBarometerVisibility
4:00 PM
Thu, Aug 25
75 °FClear.14 mph69%30.09 "HgN/A
3:30 PM77 °FClear.14 mph61%30.09 "HgN/A
3:00 PM77 °FClear.14 mph61%30.09 "HgN/A
2:30 PM77 °FPassing clouds.14 mph65%30.09 "HgN/A
2:00 PM77 °FClear.14 mph65%30.12 "HgN/A
1:30 PM77 °FClear.15 mph65%30.12 "HgN/A
1:00 PM77 °FClear.15 mph65%30.12 "HgN/A
12:30 PM77 °FClear.15 mph61%30.12 "HgN/A
12:00 PM77 °FClear.16 mph65%30.12 "HgN/A
11:30 AM75 °FClear.15 mph69%30.15 "HgN/A
11:00 AM77 °FClear.14 mph65%30.15 "HgN/A
10:30 AM75 °FClear.13 mph69%30.15 "HgN/A
10:00 AM75 °FClear.10 mph65%30.15 "HgN/A
9:30 AM73 °FClear.6 mph61%30.15 "HgN/A
9:00 AM73 °FClear.6 mph53%30.15 "HgN/A
8:30 AM75 °FClear.No wind44%30.15 "HgN/A
8:00 AM72 °FClear.3 mph47%30.15 "HgN/A
7:30 AM68 °FClear.5 mph53%30.12 "HgN/A
7:00 AM66 °FClear.6 mph56%30.12 "HgN/A
6:30 AM66 °FClear.7 mph56%30.12 "HgN/A
6:00 AM66 °FClear.8 mph56%30.12 "HgN/A
5:30 AM64 °FClear.6 mph64%30.12 "HgN/A
5:00 AM66 °FClear.7 mph60%30.09 "HgN/A
4:30 AM64 °FClear.8 mph64%30.09 "HgN/A
4:00 AM66 °FClear.7 mph64%30.09 "HgN/A
3:30 AM66 °FClear.7 mph64%30.09 "HgN/A
3:00 AM64 °FClear.6 mph73%30.12 "HgN/A
2:30 AM64 °FClear.6 mph78%30.12 "HgN/A
2:00 AM66 °FClear.6 mph68%30.12 "HgN/A
1:30 AM64 °FClear.6 mph73%30.15 "HgN/A
1:00 AM66 °FClear.6 mph68%30.15 "HgN/A
12:30 AM68 °FClear.6 mph64%30.15 "HgN/A
12:00 AM66 °FClear.8 mph73%30.15 "HgN/A
11:30 PM
Wed, Aug 24
66 °FClear.3 mph73%30.15 "HgN/A
11:00 PM68 °FClear.6 mph69%30.15 "HgN/A
10:30 PM70 °FClear.6 mph69%30.15 "HgN/A
10:00 PM70 °FClear.6 mph69%30.15 "HgN/A
9:30 PM70 °FClear.5 mph69%30.15 "HgN/A
9:00 PM68 °FPassing clouds.5 mph73%30.15 "HgN/A
8:30 PM70 °FPassing clouds.5 mph73%30.15 "HgN/A
8:00 PM70 °FPassing clouds.5 mph78%30.15 "HgN/A
7:30 PM72 °FClear.3 mph73%30.12 "HgN/A
7:00 PM72 °FClear.2 mph73%30.12 "HgN/A
6:30 PM72 °FPassing clouds.No wind73%30.12 "HgN/A
6:00 PM73 °FPassing clouds.1 mph65%30.12 "HgN/A
5:30 PM75 °FPassing clouds.No wind65%30.12 "HgN/A
5:00 PM73 °FPartly sunny.No wind69%30.09 "HgN/A
Weather by CustomWeather, © 2016

See weather overviewHow to use our weather pages